Starlink 5138

decayed
NORAD ID: 54078 Int'l Des: 2022-136 Owner: SPXS Country: US Constellation: starlink
LEOCIRCULAR
Gruppe

Über Starlink 5138

Beschreibung wird geladen...

Höhenverlauf

Altitude vs Time

uPlot chart will show altitude changes over time

Zweizeiliger Elementsatz

1 54078U 22136AD 25327.67897032 .09541434 12462-4 39915-3 0 9998
2 54078 53.1982 52.6087 0002251 283.1043 76.9756 16.43810513171497
Epoch: 23. Nov. 2025 • Age: 648 hours

Aktueller Status

Position data unavailable
Startdatum 20. Okt. 2022
Alter 3.1 years
Verglühungsdatum 23. Nov. 2025
Typ internet

Technische Details

Klassifizierung Payload
Masse 305.00 kg
Trockenmasse 290.00 kg
Gesamtmasse 305.00 kg
Länge 0.20 m
Durchmesser 2.80 m
Spannweite 9.00 m
Form Box + pan
Hersteller SPXS
Bus-Typ Starlink
Phasenstatus Reentered
Besitzer/Staat SPXS/US

Große Konstellationen

Loading constellations...